COSMOS 2251 DEB, 35586

Orbit data source: Space-Track

COSMOS 2251 DEB, 35586 is space debris in LEO originally from a launch on Wed, 16 Jun 1993 UTC launched from the Plesetsk Missile And Space Complex (PKMTR). The debris from Iridium 33, an American commercial communications satellite, has been tracked extensively since its accidental collision with the defunct Russian satellite Cosmos 2251 in 2009. This event, occurring at high speed in low Earth orbit (LEO), generated thousands of pieces of space debris, significantly increasing the risk of further collisions. The Iridium 33 debris cloud has impacted space traffic management and orbital debris mitigation strategies, making it a subject of ongoing study in space situational awareness.

Loading next visibility...
Identifier
35586, 1993-036AMD
Orbit
LEO
Country
Flag of CISCIS
Related business
Manufacturer
Unknown
Mission
Spacecraft
Bus & Motor
Unknown
Mass
Unknown
Launch date (UTC)
1993-06-16 (33 years ago)
Launch vehicle
Unknown
Launch site
Plesetsk Missile And Space Complex (PKMTR)
Object type
Payload
Rocket body
Debris
Shape & HBR
Unknown shape, 0.1 m
Radar Cross Section
Small (<0.1 m²)

Expand to show TLE details & history
Last TLE update: 20 hours ago

TLE from 20 hours ago
0 COSMOS 2251 DEB
1 35586U 93036AMD 26033.24573096  .00000571  00000-0  53548-3 0  9999
2 35586  74.0181 219.9644 0403928  84.2341  38.5041 13.52148329610784
Epoch: 2026-02-02T05:53Z
TLE epoch observation values (Epoch: 2026-02-02T05:53:51.154Z)
Latitude
51.39911°
Longitude
158.15052°
Altitude
841.904 km
Speed
7.551 km/s
True Right ascension
01h 16m 13s
True Declination
51° 13' 60"
Sunlit
Object was in daylight at epoch
Visualization orbit readout
Latitude
Unknown
Longitude
Unknown
Altitude
Unknown
Speed
Unknown
Apparent Right ascension
Unknown
Apparent Declination
Unknown
Sunlit
N/A
Visualization observer readout
Local Sidereal Time
04:14:19
Azimuth
Unknown
Elevation
Unknown
Doppler factor
Unknown
Orbital elements
Apogee altitude
1,362.61 km
Perigee altitude
761.547 km
Semi-major axis
7,440.215 km
Eccentricity
0.04039
Inclination
74.0181°
RAAN
219.9644°
Arg. of periapsis
84.2341°
True anomaly
41.50274°
Mean anomaly
38.5041°
Eccentric anomaly
39.99146°
Mean motion
3.38193 °/min
Orbital period
106.45 mins
BSTAR
0.00053548
Loading maneuver chart data...
Computing Atmospheric mass density...

Documentation

Showing up to 5 results
|